星链-30560 (STARLINK-30560 )

导读

STARLINK-30560是美国太空探索技术公司(SpaceX)于2023年10月9日发射的星链(Starlink)卫星,属于全球规模最大的低轨卫星互联网星座。星链星座依托近地轨道部署,通过相控阵天线与星间激光链路提供高速低时延的全球互联网接入服务,这颗卫星为星链星座的全球覆盖和服务拓展提供了支撑,助力SpaceX推进全球卫星互联网的组网建设。

基本信息
目录编号:
58038
目录名称:
STARLINK-30560
国际标识:
2023-156L
轨道中心:
EARTH
卫星名称:
星链-30560
卫星全名:
星链-30560 (STARLINK-30560 )
卫星状态:
在轨 (已飞行983 天)
发射日期:
2023-10-09 UTC
国别 :
美国 (US)
星等 :
--
轨道信息
数据来源 国际轨道数据
星历时间: 2026-06-18T01:41:28+0800
17小时前
查看轨道信息
半长轴: 6853.383km
偏心率: 0.0000862
轨道倾角: 53.163°
近地点辐角 118.653°
升交点赤经 330.821°
平近点角 241.456°
近地点: 474.655km
远地点: 475.837km
周期: 94.106分钟
每日圈数: 15.301898
详细信息
固有亮度:
5
最大亮度:
0.3
卫星平台:
Starlink v2.0 mini
覆盖范围:
全球
运营商:
太空探索技术公司
运营商所在国:
美国
制造商(研发单位):
太空探索技术公司
制造商所在国:
美国
使用方式:
暂无
卫星简介
星链(Starlink)计划是由太空探索技术公司(SpaceX)提出的一个巨型低轨卫星互联网星座项目,计划在2019年至2024年间在太空搭建由约1.2万颗卫星组成的“星链”网络,其中1584颗将部署在地球上空550千米处的近地轨道,并从2020年开始工作。该卫星仍在工作。
2D轨道图
3D轨道图
轨道高度分析图
轨道倾角分析图
轨道综合分析图
查看轨道综合分析图